Location: Izdebno
(52.6670°N, 16.2170°E)
Time: 17:41:37
(UTC+02:00)

Transit 4A - Pass Details

Date: 25 February 2024
Orbit: 871 x 972 km, 66.8° (Epoch: 21 April)

Event Time Altitude Azimuth Distance (km) Brightness Sun altitude
Rises 08:32:00 0° 319° (NW) 3,523 10.3 12.9°
Reaches altitude 10° 08:34:37 10° 324° (NW) 2,567 9.7 13.2°
Maximum altitude 08:40:24 51° 41° (NE) 1,097 8.6 14.0°
Drops below altitude 10° 08:46:03 10° 117° (ESE) 2,521 12.4 14.6°
Sets 08:48:36 0° 122° (ESE) 3,454 12.8 14.9°
